Time,TemperatureF,DewpointF,PressureIn,WindDirection,WindDirectionDegrees,WindSpeedMPH,WindSpeedGustMPH,Humidity,HourlyPrecipIn,Conditions,Clouds,dailyrainin,SoftwareType,DateUTC
2013-05-29 00:02:00,63.0,56.0,30.22,ENE,61,0.0,1.0,78,0.00,,,0.00,,2013-05-29 04:02:00,
2013-05-29 00:13:00,63.0,56.0,30.23,ENE,61,0.0,1.0,79,0.00,,,0.00,,2013-05-29 04:13:00,
2013-05-29 00:23:00,63.0,56.0,30.23,ENE,61,0.0,1.0,79,0.00,,,0.00,,2013-05-29 04:23:00,
2013-05-29 00:33:00,63.0,57.0,30.22,ENE,61,0.0,0.0,80,0.00,,,0.00,,2013-05-29 04:33:00,
2013-05-29 00:42:00,63.0,57.0,30.22,ENE,61,0.0,0.0,80,0.00,,,0.00,,2013-05-29 04:42:00,
2013-05-29 00:52:00,62.0,56.0,30.22,ENE,61,0.0,1.0,81,0.00,,,0.00,,2013-05-29 04:52:00,
2013-05-29 01:03:00,62.0,56.0,30.22,ENE,61,0.0,2.0,82,0.00,,,0.00,,2013-05-29 05:03:00,
2013-05-29 01:12:00,62.0,56.0,30.22,ENE,61,0.0,2.0,82,0.00,,,0.00,,2013-05-29 05:12:00,
2013-05-29 01:22:00,62.0,56.0,30.21,ENE,61,0.0,1.0,82,0.00,,,0.00,,2013-05-29 05:22:00,
2013-05-29 01:33:00,62.0,57.0,30.21,ENE,61,0.0,0.0,84,0.00,,,0.00,,2013-05-29 05:33:00,
2013-05-29 01:42:00,62.0,57.0,30.21,ENE,61,0.0,0.0,84,0.00,,,0.00,,2013-05-29 05:42:00,
2013-05-29 01:52:00,62.0,57.0,30.21,ENE,61,0.0,0.0,84,0.00,,,0.00,,2013-05-29 05:52:00,
2013-05-29 02:02:00,62.0,57.0,30.21,ENE,61,0.0,1.0,84,0.00,,,0.00,,2013-05-29 06:02:00,
2013-05-29 02:12:00,62.0,57.0,30.21,ENE,61,0.0,1.0,84,0.00,,,0.00,,2013-05-29 06:12:00,
2013-05-29 02:21:00,62.0,57.0,30.21,ENE,61,0.0,0.0,84,0.00,,,0.00,,2013-05-29 06:21:00,
2013-05-29 02:32:00,62.0,57.0,30.20,ENE,61,0.0,0.0,84,0.00,,,0.00,,2013-05-29 06:32:00,
2013-05-29 02:42:00,62.0,57.0,30.20,ENE,61,0.0,0.0,84,0.00,,,0.00,,2013-05-29 06:42:00,
2013-05-29 02:52:00,62.0,57.0,30.21,ENE,61,0.0,0.0,84,0.00,,,0.00,,2013-05-29 06:52:00,
2013-05-29 03:01:00,63.0,58.0,30.21,SW,233,1.0,4.0,84,0.00,,,0.00,,2013-05-29 07:01:00,
2013-05-29 03:11:00,63.0,58.0,30.21,SW,233,1.0,4.0,84,0.00,,,0.00,,2013-05-29 07:11:00,
2013-05-29 03:22:00,63.0,58.0,30.21,SW,233,0.0,1.0,83,0.00,,,0.00,,2013-05-29 07:22:00,
2013-05-29 03:34:00,64.0,58.0,30.22,WSW,238,0.0,1.0,82,0.00,,,0.00,,2013-05-29 07:34:00,
2013-05-29 03:42:00,64.0,58.0,30.22,WSW,238,0.0,1.0,82,0.00,,,0.00,,2013-05-29 07:42:00,
2013-05-29 03:52:00,64.0,58.0,30.22,SW,235,0.0,2.0,81,0.00,,,0.00,,2013-05-29 07:52:00,
2013-05-29 04:02:00,64.0,58.0,30.23,SW,233,0.0,4.0,80,0.00,,,0.00,,2013-05-29 08:02:00,
2013-05-29 04:11:00,64.0,58.0,30.23,SW,233,0.0,4.0,80,0.00,,,0.00,,2013-05-29 08:11:00,
2013-05-29 04:22:00,64.0,58.0,30.22,SW,234,0.0,2.0,81,0.00,,,0.00,,2013-05-29 08:22:00,
2013-05-29 04:32:00,63.0,57.0,30.23,South,191,1.0,4.0,82,0.00,,,0.00,,2013-05-29 08:32:00,
2013-05-29 04:42:00,63.0,57.0,30.23,South,191,1.0,4.0,82,0.00,,,0.00,,2013-05-29 08:42:00,
2013-05-29 04:52:00,63.0,57.0,30.23,SW,230,1.0,3.0,82,0.00,,,0.00,,2013-05-29 08:52:00,
2013-05-29 05:01:00,62.0,56.0,30.23,WSW,237,0.0,4.0,82,0.00,,,0.00,,2013-05-29 09:01:00,
2013-05-29 05:11:00,62.0,56.0,30.23,WSW,237,0.0,4.0,82,0.00,,,0.00,,2013-05-29 09:11:00,
2013-05-29 05:21:00,62.0,56.0,30.22,SW,220,0.0,4.0,82,0.00,,,0.00,,2013-05-29 09:21:00,
2013-05-29 05:33:00,62.0,57.0,30.22,SW,224,0.0,0.0,83,0.00,,,0.00,,2013-05-29 09:33:00,
2013-05-29 05:42:00,62.0,57.0,30.22,SW,224,0.0,0.0,83,0.00,,,0.00,,2013-05-29 09:42:00,
2013-05-29 05:52:00,61.0,56.0,30.22,SW,224,0.0,0.0,83,0.00,,,0.00,,2013-05-29 09:52:00,
2013-05-29 06:03:00,61.0,56.0,30.21,SW,224,0.0,0.0,84,0.00,,,0.00,,2013-05-29 10:03:00,
2013-05-29 06:12:00,61.0,56.0,30.21,SW,224,0.0,0.0,84,0.00,,,0.00,,2013-05-29 10:12:00,
2013-05-29 06:22:00,60.0,55.0,30.22,SW,224,0.0,1.0,84,0.00,,,0.00,,2013-05-29 10:22:00,
2013-05-29 06:33:00,59.0,55.0,30.22,SW,224,0.0,1.0,86,0.00,,,0.00,,2013-05-29 10:33:00,
2013-05-29 06:42:00,59.0,55.0,30.22,SW,224,0.0,1.0,86,0.00,,,0.00,,2013-05-29 10:42:00,
2013-05-29 06:52:00,59.0,55.0,30.23,SW,224,0.0,0.0,88,0.00,,,0.00,,2013-05-29 10:52:00,
2013-05-29 07:02:00,58.0,54.0,30.23,SW,224,0.0,2.0,88,0.00,,,0.00,,2013-05-29 11:02:00,
2013-05-29 07:12:00,58.0,54.0,30.23,SW,224,0.0,2.0,88,0.00,,,0.00,,2013-05-29 11:12:00,
2013-05-29 07:22:00,58.0,55.0,30.24,SW,224,0.0,1.0,89,0.00,,,0.00,,2013-05-29 11:22:00,
2013-05-29 07:32:00,57.0,54.0,30.24,SW,224,0.0,0.0,89,0.00,,,0.00,,2013-05-29 11:32:00,
2013-05-29 07:42:00,57.0,54.0,30.24,SW,224,0.0,0.0,89,0.00,,,0.00,,2013-05-29 11:42:00,
2013-05-29 07:52:00,57.0,54.0,30.24,SW,224,0.0,0.0,90,0.00,,,0.00,,2013-05-29 11:52:00,
2013-05-29 08:01:00,57.0,54.0,30.24,SW,224,0.0,1.0,90,0.00,,,0.00,,2013-05-29 12:01:00,
2013-05-29 08:11:00,57.0,54.0,30.24,SW,224,0.0,1.0,90,0.00,,,0.00,,2013-05-29 12:11:00,
2013-05-29 08:22:00,57.0,54.0,30.24,SW,224,0.0,0.0,91,0.00,,,0.00,,2013-05-29 12:22:00,
2013-05-29 08:32:00,59.0,56.0,30.24,SW,224,0.0,0.0,91,0.00,,,0.00,,2013-05-29 12:32:00,
2013-05-29 08:42:00,59.0,56.0,30.24,SW,224,0.0,0.0,91,0.00,,,0.00,,2013-05-29 12:42:00,
2013-05-29 08:52:00,59.0,56.0,30.24,SW,224,0.0,0.0,91,0.00,,,0.00,,2013-05-29 12:52:00,
2013-05-29 09:02:00,61.0,58.0,30.25,SW,224,0.0,0.0,89,0.00,,,0.00,,2013-05-29 13:02:00,
2013-05-29 09:11:00,61.0,58.0,30.25,SW,224,0.0,0.0,89,0.00,,,0.00,,2013-05-29 13:11:00,
2013-05-29 09:22:00,61.0,57.0,30.25,SW,224,0.0,0.0,88,0.00,,,0.00,,2013-05-29 13:22:00,
2013-05-29 09:32:00,63.0,59.0,30.25,SW,224,0.0,0.0,87,0.00,,,0.00,,2013-05-29 13:32:00,
2013-05-29 09:42:00,63.0,59.0,30.25,SW,224,0.0,0.0,87,0.00,,,0.00,,2013-05-29 13:42:00,
2013-05-29 09:53:00,63.0,58.0,30.25,SW,224,0.0,0.0,85,0.00,,,0.00,,2013-05-29 13:53:00,
2013-05-29 10:02:00,65.0,59.0,30.26,SW,224,0.0,1.0,81,0.00,,,0.00,,2013-05-29 14:02:00,
2013-05-29 10:11:00,65.0,59.0,30.26,SW,224,0.0,1.0,81,0.00,,,0.00,,2013-05-29 14:11:00,
2013-05-29 10:21:00,66.0,60.0,30.26,SW,224,0.0,1.0,81,0.00,,,0.00,,2013-05-29 14:21:00,
2013-05-29 10:32:00,67.0,59.0,30.26,SW,224,0.0,1.0,75,0.00,,,0.00,,2013-05-29 14:32:00,
2013-05-29 10:42:00,67.0,59.0,30.26,SW,224,0.0,1.0,75,0.00,,,0.00,,2013-05-29 14:42:00,
2013-05-29 10:52:00,68.0,60.0,30.25,SW,224,0.0,2.0,76,0.00,,,0.00,,2013-05-29 14:52:00,
2013-05-29 11:01:00,69.0,58.0,30.25,WSW,249,0.0,1.0,68,0.00,,,0.00,,2013-05-29 15:01:00,
2013-05-29 11:11:00,69.0,58.0,30.25,WSW,249,0.0,1.0,68,0.00,,,0.00,,2013-05-29 15:11:00,
2013-05-29 11:21:00,70.0,58.0,30.25,WSW,249,0.0,2.0,66,0.00,,,0.00,,2013-05-29 15:21:00,
2013-05-29 11:33:00,71.0,56.0,30.25,West,261,0.0,2.0,60,0.00,,,0.00,,2013-05-29 15:33:00,
2013-05-29 11:42:00,71.0,56.0,30.25,West,261,0.0,2.0,60,0.00,,,0.00,,2013-05-29 15:42:00,
2013-05-29 11:53:00,72.0,58.0,30.25,West,261,0.0,1.0,62,0.00,,,0.00,,2013-05-29 15:53:00,
2013-05-29 12:03:00,72.0,54.0,30.26,ENE,57,0.0,2.0,54,0.00,,,0.00,,2013-05-29 16:03:00,
2013-05-29 12:13:00,72.0,54.0,30.26,ENE,57,0.0,2.0,54,0.00,,,0.00,,2013-05-29 16:13:00,
2013-05-29 12:22:00,73.0,55.0,30.26,WSW,237,1.0,3.0,53,0.00,,,0.00,,2013-05-29 16:22:00,
2013-05-29 12:33:00,75.0,55.0,30.25,WNW,286,0.0,4.0,50,0.00,,,0.00,,2013-05-29 16:33:00,
2013-05-29 12:42:00,75.0,55.0,30.25,WNW,286,0.0,4.0,50,0.00,,,0.00,,2013-05-29 16:42:00,
2013-05-29 12:52:00,76.0,58.0,30.25,NNW,343,1.0,4.0,54,0.00,,,0.00,,2013-05-29 16:52:00,
2013-05-29 13:02:00,77.0,61.0,30.25,NNW,343,1.0,4.0,57,0.00,,,0.00,,2013-05-29 17:02:00,
2013-05-29 13:12:00,77.0,61.0,30.25,NNW,343,1.0,4.0,57,0.00,,,0.00,,2013-05-29 17:12:00,
2013-05-29 13:22:00,77.0,62.0,30.25,NNE,27,3.0,8.0,59,0.00,,,0.00,,2013-05-29 17:22:00,
2013-05-29 13:32:00,76.0,61.0,30.25,NNE,28,2.0,7.0,60,0.00,,,0.00,,2013-05-29 17:32:00,
2013-05-29 13:42:00,76.0,61.0,30.25,NNE,28,2.0,7.0,60,0.00,,,0.00,,2013-05-29 17:42:00,
2013-05-29 13:52:00,77.0,62.0,30.25,NNE,16,1.0,5.0,60,0.00,,,0.00,,2013-05-29 17:52:00,
2013-05-29 14:01:00,78.0,62.0,30.24,NNE,19,0.0,5.0,58,0.00,,,0.00,,2013-05-29 18:01:00,
2013-05-29 14:13:00,78.0,62.0,30.24,North,7,2.0,6.0,58,0.00,,,0.00,,2013-05-29 18:13:00,
2013-05-29 14:22:00,78.0,62.0,30.24,North,7,2.0,6.0,58,0.00,,,0.00,,2013-05-29 18:22:00,
2013-05-29 14:32:00,78.0,62.0,30.24,SE,127,0.0,6.0,58,0.00,,,0.00,,2013-05-29 18:32:00,
2013-05-29 14:42:00,78.0,62.0,30.24,SE,127,0.0,6.0,58,0.00,,,0.00,,2013-05-29 18:42:00,
2013-05-29 14:51:00,79.0,63.0,30.24,SSE,155,0.0,7.0,59,0.00,,,0.00,,2013-05-29 18:51:00,
2013-05-29 15:02:00,78.0,62.0,30.24,North,0,0.0,7.0,58,0.00,,,0.00,,2013-05-29 19:02:00,
2013-05-29 15:11:00,78.0,62.0,30.24,NE,37,1.0,8.0,57,0.00,,,0.00,,2013-05-29 19:11:00,
2013-05-29 15:22:00,78.0,62.0,30.24,NE,37,1.0,8.0,57,0.00,,,0.00,,2013-05-29 19:22:00,
2013-05-29 15:32:00,76.0,61.0,30.24,NNE,16,0.0,4.0,60,0.00,,,0.00,,2013-05-29 19:32:00,
2013-05-29 15:44:00,76.0,62.0,30.23,ENE,59,1.0,3.0,62,0.00,,,0.00,,2013-05-29 19:44:00,
2013-05-29 15:53:00,76.0,62.0,30.23,ENE,59,1.0,3.0,62,0.00,,,0.00,,2013-05-29 19:53:00,
2013-05-29 16:03:00,75.0,61.0,30.22,NNE,21,1.0,6.0,62,0.00,,,0.00,,2013-05-29 20:03:00,
2013-05-29 16:11:00,75.0,61.0,30.22,NNE,21,1.0,6.0,62,0.00,,,0.00,,2013-05-29 20:11:00,
2013-05-29 16:23:00,76.0,62.0,30.23,West,264,0.0,5.0,62,0.00,,,0.00,,2013-05-29 20:23:00,
2013-05-29 16:33:00,77.0,63.0,30.22,North,0,3.0,6.0,61,0.00,,,0.00,,2013-05-29 20:33:00,
2013-05-29 16:42:00,77.0,63.0,30.22,North,0,3.0,6.0,61,0.00,,,0.00,,2013-05-29 20:42:00,
2013-05-29 16:52:00,77.0,62.0,30.23,ENE,57,2.0,7.0,59,0.00,,,0.00,,2013-05-29 20:52:00,
2013-05-29 17:02:00,75.0,61.0,30.22,NNW,339,0.0,6.0,62,0.00,,,0.00,,2013-05-29 21:02:00,
2013-05-29 17:12:00,75.0,61.0,30.22,NNW,339,0.0,6.0,62,0.00,,,0.00,,2013-05-29 21:12:00,
2013-05-29 17:22:00,75.0,62.0,30.22,SW,223,1.0,3.0,64,0.00,,,0.00,,2013-05-29 21:22:00,
2013-05-29 17:33:00,74.0,61.0,30.22,North,5,0.0,4.0,63,0.00,,,0.00,,2013-05-29 21:33:00,
2013-05-29 17:43:00,74.0,61.0,30.22,North,5,0.0,4.0,63,0.00,,,0.00,,2013-05-29 21:43:00,
2013-05-29 17:53:00,74.0,61.0,30.22,NNW,333,0.0,7.0,65,0.00,,,0.00,,2013-05-29 21:53:00,
2013-05-29 18:03:00,74.0,61.0,30.22,North,351,0.0,4.0,63,0.00,,,0.00,,2013-05-29 22:03:00,
2013-05-29 18:12:00,74.0,61.0,30.22,North,351,0.0,4.0,63,0.00,,,0.00,,2013-05-29 22:12:00,
2013-05-29 18:23:00,74.0,61.0,30.22,NNE,16,0.0,3.0,63,0.00,,,0.00,,2013-05-29 22:23:00,
2013-05-29 18:34:00,74.0,60.0,30.22,North,11,0.0,1.0,62,0.00,,,0.00,,2013-05-29 22:34:00,
2013-05-29 18:42:00,75.0,61.0,30.21,WSW,250,3.0,8.0,61,0.00,,,0.00,,2013-05-29 22:42:00,
2013-05-29 18:53:00,75.0,61.0,30.21,WSW,250,3.0,8.0,61,0.00,,,0.00,,2013-05-29 22:53:00,
2013-05-29 19:02:00,75.0,60.0,30.22,NNW,339,0.0,3.0,60,0.00,,,0.00,,2013-05-29 23:02:00,
2013-05-29 19:12:00,75.0,60.0,30.22,NNW,339,0.0,3.0,60,0.00,,,0.00,,2013-05-29 23:12:00,
2013-05-29 19:22:00,75.0,60.0,30.22,WSW,244,0.0,5.0,59,0.00,,,0.00,,2013-05-29 23:22:00,
2013-05-29 19:33:00,74.0,59.0,30.22,NW,308,1.0,4.0,60,0.00,,,0.00,,2013-05-29 23:33:00,
2013-05-29 19:42:00,74.0,60.0,30.23,NW,307,0.0,2.0,62,0.00,,,0.00,,2013-05-29 23:42:00,
2013-05-29 19:53:00,74.0,60.0,30.23,NW,307,0.0,2.0,62,0.00,,,0.00,,2013-05-29 23:53:00,
2013-05-29 20:02:00,73.0,61.0,30.23,NNW,334,0.0,2.0,65,0.00,,,0.00,,2013-05-30 00:02:00,
2013-05-29 20:11:00,73.0,61.0,30.23,NNW,334,0.0,2.0,65,0.00,,,0.00,,2013-05-30 00:11:00,
2013-05-29 20:22:00,72.0,60.0,30.23,NNW,334,0.0,0.0,67,0.00,,,0.00,,2013-05-30 00:22:00,
2013-05-29 20:32:00,70.0,59.0,30.23,NNW,334,0.0,0.0,69,0.00,,,0.00,,2013-05-30 00:32:00,
2013-05-29 20:42:00,70.0,59.0,30.23,NNW,334,0.0,0.0,69,0.00,,,0.00,,2013-05-30 00:42:00,
2013-05-29 20:52:00,69.0,59.0,30.23,NNW,334,0.0,0.0,71,0.00,,,0.00,,2013-05-30 00:52:00,
2013-05-29 21:02:00,67.0,58.0,30.23,NNW,334,0.0,1.0,73,0.00,,,0.00,,2013-05-30 01:02:00,
2013-05-29 21:11:00,67.0,58.0,30.23,NNW,334,0.0,1.0,73,0.00,,,0.00,,2013-05-30 01:11:00,
2013-05-29 21:22:00,67.0,59.0,30.23,NNW,334,0.0,0.0,75,0.00,,,0.00,,2013-05-30 01:22:00,
2013-05-29 21:32:00,65.0,58.0,30.24,NNW,334,0.0,0.0,77,0.00,,,0.00,,2013-05-30 01:32:00,
2013-05-29 21:42:00,65.0,58.0,30.24,NNW,334,0.0,0.0,77,0.00,,,0.00,,2013-05-30 01:42:00,
2013-05-29 21:52:00,65.0,58.0,30.24,NNW,334,0.0,0.0,78,0.00,,,0.00,,2013-05-30 01:52:00,
2013-05-29 22:02:00,64.0,58.0,30.24,NNW,338,0.0,1.0,80,0.00,,,0.00,,2013-05-30 02:02:00,
2013-05-29 22:11:00,64.0,58.0,30.24,NNW,338,0.0,1.0,80,0.00,,,0.00,,2013-05-30 02:11:00,
2013-05-29 22:21:00,63.0,57.0,30.24,NNW,338,0.0,0.0,80,0.00,,,0.00,,2013-05-30 02:21:00,
2013-05-29 22:32:00,63.0,57.0,30.25,NE,55,0.0,2.0,81,0.00,,,0.00,,2013-05-30 02:32:00,
2013-05-29 22:42:00,63.0,57.0,30.25,NE,55,0.0,2.0,81,0.00,,,0.00,,2013-05-30 02:42:00,
2013-05-29 22:52:00,63.0,57.0,30.25,NE,55,0.0,2.0,81,0.00,,,0.00,,2013-05-30 02:52:00,
2013-05-29 23:02:00,61.0,56.0,30.26,NE,56,0.0,1.0,83,0.00,,,0.00,,2013-05-30 03:02:00,
2013-05-29 23:11:00,61.0,56.0,30.26,NE,56,0.0,1.0,84,0.00,,,0.00,,2013-05-30 03:11:00,
2013-05-29 23:21:00,61.0,56.0,30.26,NE,56,0.0,1.0,84,0.00,,,0.00,,2013-05-30 03:21:00,
2013-05-29 23:33:00,61.0,56.0,30.26,NE,56,0.0,1.0,84,0.00,,,0.00,,2013-05-30 03:33:00,
2013-05-29 23:43:00,61.0,56.0,30.26,NE,56,0.0,1.0,84,0.00,,,0.00,,2013-05-30 03:43:00,
2013-05-29 23:53:00,60.0,55.0,30.26,NE,56,0.0,1.0,85,0.00,,,0.00,,2013-05-30 03:53:00,